Scottsdale, AZ

7:57 PM MST on February 09, 2016 (GMT -0700)
Scottsdale

Weather History for KSDL - September, 2013

Change the Weather History Date:

Friday, September 20, 2013

  Actual Average Record
Temperature  
Mean Temperature 86 °F -  
Max Temperature 100 °F 94 °F 102 °F (2005)
Min Temperature 73 °F 72 °F 66 °F (1996)
Cooling Degree Days 22    
Growing Degree Days 36 (Base 50)    
Moisture  
Dew Point 45 °F    
Average Humidity 24    
Maximum Humidity 41    
Minimum Humidity 15    
Precipitation  
Precipitation 0.00 in - - ()
Sea Level Pressure  
Sea Level Pressure 29.70 in    
Wind  
Wind Speed 1 mph (WSW)    
Max Wind Speed 8 mph    
Max Gust Speed -    
Visibility 10 miles    
Events      
Averages and records for this station are not official NWS values.
T = Trace of Precipitation, MM = Missing Value Source: NWS Daily Summary

Daily Weather History Graph

Daily Weather History Graph

Search for Another Location

Airport or City:

Trip Planner

Search our weather history database for the weather conditions in past years. The results will help you decide how hot, cold, wet, or windy it might be!

Date:

Astronomy

Sep. 20, 2013 Rise Set
Actual Time 6:14 AM MST 6:26 PM MST
Civil Twilight 5:49 AM MST 6:51 PM MST
Nautical Twilight 5:20 AM MST 7:20 PM MST
Astronomical Twilight 4:51 AM MST 7:49 PM MST
Moon 7:09 PM MST (9/20) 7:27 AM MST (9/20)
Length of Visible Light 13h 01m
Length of Day
12h 12m
Full, 98% of the Moon is Illuminated
Sep 20
Full
Sep 26
Last Quarter
Oct 4
New
Oct 11
First Quarter
Oct 18
Full

Hourly Weather History & Observations

Time (MST) Temp. Dew Point Humidity Pressure Visibility Wind Dir Wind Speed Gust Speed Precip Events Conditions
12:53 AM 78.1 °F 41.0 °F 27% 29.68 in 10.0 mi Calm Calm - N/A   Clear
1:53 AM 78.1 °F 42.1 °F 28% 29.68 in 10.0 mi Calm Calm - N/A   Clear
2:53 AM 75.0 °F 43.0 °F 32% 29.68 in 10.0 mi Calm Calm - N/A   Clear
3:53 AM 73.0 °F 45.0 °F 37% 29.69 in 10.0 mi Calm Calm - N/A   Clear
4:53 AM 75.9 °F 44.1 °F 32% 29.69 in 10.0 mi Calm Calm - N/A   Clear
5:53 AM 73.9 °F 46.9 °F 38% 29.71 in 10.0 mi Calm Calm - N/A   Clear
6:53 AM 73.0 °F 48.0 °F 41% 29.74 in 10.0 mi Calm Calm - N/A   Clear
7:53 AM 82.0 °F 42.1 °F 24% 29.75 in 10.0 mi Calm Calm - N/A   Clear
8:53 AM 84.9 °F 41.0 °F 21% 29.75 in 10.0 mi WSW 3.5 mph - N/A   Clear
9:53 AM 90.0 °F 43.0 °F 19% 29.75 in 10.0 mi SSW 3.5 mph - N/A   Clear
10:53 AM 93.9 °F 45.0 °F 18% 29.75 in 10.0 mi Calm Calm - N/A   Clear
11:53 AM 97.0 °F 46.9 °F 18% 29.73 in 10.0 mi Calm Calm - N/A   Clear
12:53 PM 100.0 °F 45.0 °F 15% 29.71 in 10.0 mi SSW 5.8 mph - N/A   Clear
1:53 PM 100.0 °F 46.0 °F 16% 29.69 in 10.0 mi Variable 4.6 mph - N/A   Clear
2:53 PM 100.9 °F 48.0 °F 17% 29.68 in 10.0 mi Variable 3.5 mph - N/A   Clear
3:53 PM 100.0 °F 48.0 °F 17% 29.66 in 10.0 mi WSW 8.1 mph - N/A   Clear
4:53 PM 100.0 °F 46.0 °F 16% 29.65 in 10.0 mi Variable 3.5 mph - N/A   Clear
5:53 PM 99.0 °F 45.0 °F 16% 29.65 in 10.0 mi West 6.9 mph - N/A   Clear
6:53 PM 96.1 °F 46.0 °F 18% 29.67 in 10.0 mi WSW 4.6 mph - N/A   Clear
7:53 PM 93.9 °F 46.0 °F 19% 29.68 in 10.0 mi West 3.5 mph - N/A   Clear
8:53 PM 91.9 °F 46.0 °F 21% 29.70 in 10.0 mi Calm Calm - N/A   Clear
9:53 PM 91.0 °F 46.9 °F 22% 29.71 in 10.0 mi Calm Calm - N/A   Clear
10:53 PM 88.0 °F 48.9 °F 26% 29.71 in 10.0 mi North 3.5 mph - N/A   Clear
11:53 PM 84.9 °F 51.1 °F 31% 29.71 in 10.0 mi Calm Calm - N/A   Clear